User: anonymous   Login
Location: Unspecified
(0.0000°N, 0.0000°E)
Time: 03:44:19
(UTC+00:00)
Language:

OBJECT X - Orbit

View from above orbital plane
View from above orbital plane
View from above satellite
View from above satellite

Ground track
Ground track

The orbit data is extracted from the following two-line orbital elements,

1 43897U 18111X   23277.75424368  .00018773  00000-0  57991-3 0  9993
2 43897  97.1151 149.6720 0017763 189.6239 170.4667 15.33422055265710
Epoch (UTC): 04 October 2023 18:06:06
Eccentricity: 0.0017763
inclination: 97.1151°
perigee height: 453 km
apogee height: 478 km
right ascension of ascending node: 149.6720°
argument of perigee: 189.6239°
revolutions per day: 15.33422055
mean anomaly at epoch: 170.4667°
orbit number at epoch: 26571

The dashed part of the orbit path shows where the satellite is in the earth's shadow,  

DLR